Temperature
14 15 15 16 19 19 20 20 19 19 19 18 17 18 20 20 20 18 14 14 14 14 14 15 15 15 15 15 15 15 15 15 15 15 15 15 15 15 15 15 15 15 15 15 15 14 14 14 15
14 14 15 16 19 20 20 19 18 18 17 16 16 17 18 17 14 13 13 14 14 14 14 14 14 15 15 15 15 15 15 15 15 15 15 15 15 15 15 15 15 15 14 14 14 14 14 14 14
14 14 15 18 18 20 20 18 18 16 15 15 16 16 16 15 12 12 13 13 13 14 14 14 14 14 15 15 15 15 15 15 15 15 15 15 15 15 15 15 14 14 14 14 14 14 14 14 14
13 14 15 17 18 18 18 17 16 16 15 14 15 15 13 11 11 12 13 13 13 13 13 14 14 14 14 14 15 15 15 15 15 15 15 15 15 15 14 14 14 14 14 14 14 14 14 14 14
13 15 16 16 17 17 16 15 15 16 15 14 14 15 13 11 11 12 13 13 13 13 13 13 14 14 14 14 14 14 15 14 15 15 14 14 14 14 14 14 14 14 14 14 14 14 14 14 13
13 15 16 17 16 16 15 13 14 15 15 13 13 14 12 11 11 12 12 12 13 13 13 13 13 13 14 14 14 14 14 14 14 14 14 14 14 14 14 14 14 14 14 14 13 13 13 13 13
14 15 16 16 16 15 14 13 13 14 14 12 12 14 12 10 11 11 11 12 12 12 12 13 13 13 13 13 13 14 14 14 14 14 14 14 14 14 14 13 13 13 13 13 13 13 13 13 13
12 14 14 15 15 15 13 12 11 12 12 10 10 12 11 9 10 11 11 11 11 12 12 12 12 12 13 13 13 13 13 13 13 13 14 13 13 13 13 13 13 13 13 13 13 13 13 13 13
10 13 14 14 14 13 12 11 10 10 10 9 9 9 9 9 9 10 10 10 11 11 11 12 12 12 12 12 12 13 13 13 13 13 13 13 13 13 13 13 13 13 13 13 13 13 13 13 12
11 12 12 12 12 12 11 10 10 10 10 9 8 8 8 8 9 9 9 10 10 11 11 11 11 12 12 12 12 12 12 12 12 12 12 12 12 12 12 12 13 13 13 13 12 12 12 12 12
10 11 10 10 9 9 9 9 8 10 10 9 8 7 7 7 8 8 9 9 9 10 10 10 11 11 11 12 12 12 12 12 12 12 12 12 12 12 12 12 12 12 12 12 12 12 12 12 12
9 9 9 8 7 8 8 8 8 8 8 7 6 6 6 6 7 7 8 8 8 9 9 10 10 10 11 11 11 11 11 11 11 11 12 12 11 11 11 12 12 12 12 12 12 12 11 11 11
8 8 7 6 6 6 6 7 7 6 5 6 6 6 6 6 6 7 7 8 8 8 9 9 10 10 10 10 11 11 11 11 11 11 11 11 11 11 11 11 11 11 11 11 11 11 11 11 11
7 7 7 6 6 6 6 6 6 5 5 5 5 5 5 5 6 6 7 7 7 8 8 8 9 9 10 10 10 10 10 10 11 11 11 11 11 11 11 11 11 11 11 11 11 11 11 11 10
6 7 7 6 6 6 7 7 6 5 4 4 4 4 4 5 5 6 6 6 7 7 7 8 8 8 9 9 9 10 10 10 10 10 10 10 10 10 10 10 10 10 10 10 10 10 10 10 10
7 8 8 7 6 6 7 8 6 4 4 4 4 4 4 4 4 5 5 6 6 6 7 7 7 8 8 9 9 9 9 9 10 10 10 10 10 10 10 10 10 10 10 10 10 10 10 10 10
8 8 8 7 6 6 7 7 6 3 4 4 3 3 3 3 4 4 5 5 6 6 6 6 7 7 8 8 8 9 9 9 9 9 9 9 9 9 9 9 9 9 9 9 9 9 9 9 9
7 7 7 7 6 5 6 6 5 3 3 3 3 3 2 3 3 4 4 5 5 5 6 6 6 7 7 7 8 8 8 8 8 9 9 9 9 9 9 9 9 9 9 9 9 9 9 9 9
6 6 6 6 5 5 5 5 5 4 3 3 3 2 2 2 3 3 4 4 5 5 5 5 6 6 6 7 7 7 8 8 8 8 8 8 8 8 8 8 9 9 9 9 9 9 9 8 8
6 6 6 5 5 5 5 5 4 3 2 2 2 2 1 1 2 3 3 4 4 5 5 5 6 6 6 6 6 7 7 7 7 7 8 8 8 8 8 8 8 8 8 8 8 8 8 8 8
5 6 6 5 5 5 4 5 4 3 2 1 1 1 1 1 1 2 3 3 3 4 4 5 5 5 5 6 6 6 6 6 7 7 7 7 7 7 7 7 7 7 7 7 7 7 8 8 7
5 5 4 4 5 5 5 6 5 3 3 2 1 1 0 0 1 1 2 2 3 3 3 4 4 5 5 5 6 6 6 6 6 6 6 7 7 7 7 7 7 7 7 7 7 7 7 7 7
4 3 4 4 4 5 4 5 6 3 3 2 1 0 -0 -0 0 0 1 1 2 3 3 3 4 4 5 5 5 5 5 5 5 6 6 6 6 6 6 6 6 6 6 7 6 6 7 7 7
3 3 4 4 5 4 4 5 6 4 3 2 1 0 -1 -1 -1 -0 0 1 1 2 2 3 3 4 4 4 4 4 5 5 5 5 5 5 6 6 6 6 6 6 6 6 6 6 6 6 6
3 4 5 5 5 5 3 4 4 3 2 2 1 -0 -1 -1 -1 -1 -0 0 1 1 2 2 2 3 3 3 3 4 4 4 4 4 5 5 5 5 5 5 5 5 5 6 6 6 6 6 6
3 3 4 5 6 6 3 4 4 2 1 0 -1 -1 -1 -2 -2 -1 -1 -0 0 1 1 1 2 2 2 3 3 3 3 4 4 4 4 4 4 4 5 5 5 5 5 5 5 5 5 5 5
2 3 2 3 3 3 4 3 3 1 1 -0 -1 -1 -2 -2 -2 -2 -1 -1 -0 0 0 1 1 1 2 2 2 2 3 3 3 3 3 4 4 4 4 4 4 4 4 4 4 5 5 5 5
1 1 2 2 3 5 5 4 4 1 1 0 -1 -1 -2 -2 -2 -2 -2 -1 -1 -0 -0 -0 0 1 1 1 2 2 2 2 3 3 3 3 3 3 3 3 3 3 4 4 4 4 4 4 4
0 0 1 2 2 3 4 4 2 1 0 -0 -1 -2 -2 -2 -2 -2 -2 -2 -1 -1 -1 -1 -0 -0 0 1 1 1 1 2 2 2 2 2 2 2 2 3 3 3 3 3 3 3 3 3 4
-0 -0 0 2 1 1 3 3 0 -0 -1 -2 -2 -2 -3 -3 -3 -2 -2 -2 -2 -1 -1 -1 -1 -1 -0 0 0 1 1 1 1 1 2 1 1 2 2 2 2 2 2 2 2 2 3 3 3
Wind_Speed
7 5 2 2 4 6 11 8 5 4 4 2 1 2 3 2 1 2 4 4 3 1 5 10 9 9 9 11 13 13 14 14 13 13 13 13 13 13 13 14 14 14 14 15 16 16 17 17 17
5 2 2 3 7 11 10 8 7 4 2 2 2 2 2 1 3 3 4 4 2 1 4 8 9 9 9 11 13 13 14 14 13 13 13 13 13 13 13 13 14 14 14 15 15 16 16 16 16
2 1 2 4 7 12 9 5 5 3 2 2 2 1 0 1 3 3 5 3 1 1 3 7 8 9 9 11 13 13 13 14 13 13 13 13 13 13 13 13 13 14 14 15 15 16 16 16 16
2 2 2 6 11 10 7 3 3 4 3 1 2 2 2 4 4 5 4 2 2 2 2 7 8 9 9 10 12 13 13 13 13 13 12 12 13 13 12 13 13 14 14 15 15 15 15 15 15
1 3 5 8 12 8 5 2 4 4 3 2 2 2 1 3 6 6 4 3 2 3 3 6 8 8 9 10 11 12 13 13 13 13 12 12 12 13 13 13 14 14 14 14 14 15 15 15 15
3 3 7 11 12 8 4 3 4 4 3 2 1 2 1 3 6 6 4 4 4 3 4 5 6 8 8 9 10 11 12 12 12 12 12 12 12 12 13 13 14 13 13 14 14 14 14 14 14
3 4 8 10 9 8 4 3 4 4 4 2 2 2 2 2 6 4 3 3 4 4 4 4 5 5 7 8 9 10 11 12 12 12 12 12 12 12 13 13 13 13 13 13 13 14 14 14 14
1 3 7 9 9 7 3 3 2 3 3 1 1 2 2 2 4 2 3 4 4 4 4 4 4 4 4 6 8 8 10 10 11 11 11 12 12 12 13 13 13 13 13 13 13 13 14 13 13
1 4 8 8 8 5 2 3 1 1 1 1 1 2 4 1 1 2 3 4 4 4 4 3 3 3 3 4 6 7 8 9 11 10 11 12 11 11 11 12 13 13 13 13 13 13 13 13 12
2 6 7 4 3 3 3 2 2 2 2 2 2 3 3 1 2 2 2 2 2 3 3 3 2 2 3 3 4 6 6 7 8 9 9 9 9 9 9 12 13 13 13 14 13 13 12 9 9
1 4 3 1 0 1 2 1 1 3 3 3 3 3 1 0 1 1 1 1 1 1 2 3 2 1 3 3 2 3 4 5 6 7 7 7 8 8 9 9 10 11 12 11 11 9 7 7 6
2 1 2 1 2 1 2 2 0 1 3 3 3 1 1 1 1 0 0 0 0 1 1 2 3 1 2 3 2 2 3 4 4 5 6 6 5 6 7 7 8 8 7 8 7 6 6 6 6
2 2 1 2 2 2 2 2 2 3 4 3 2 0 1 1 1 1 1 1 1 1 1 2 2 1 2 2 2 2 3 4 5 5 6 6 5 5 5 6 6 7 7 7 6 6 6 6 6
2 2 1 2 1 1 0 2 2 4 3 2 1 1 1 1 2 2 2 2 2 2 2 2 1 1 2 2 2 2 2 3 4 5 5 5 5 5 5 5 5 6 6 6 6 6 6 5 5
3 1 1 2 1 0 1 3 3 4 3 2 2 2 2 2 2 2 2 3 3 3 2 2 1 1 2 2 3 3 3 3 4 4 5 4 4 5 6 5 4 5 6 6 6 6 5 5 4
2 2 3 1 1 1 3 6 1 2 1 3 2 2 2 3 3 3 3 3 3 3 3 2 2 2 1 2 2 3 3 3 3 4 4 4 4 5 5 5 4 5 6 5 5 4 4 4 4
1 3 4 3 1 1 4 5 2 2 2 2 3 2 2 3 4 4 4 3 3 2 2 2 2 2 1 2 2 3 3 3 3 4 4 3 3 4 5 4 4 5 5 5 4 4 4 4 4
3 4 5 4 1 2 5 6 4 3 3 3 3 3 3 3 4 5 4 3 3 2 2 2 2 2 1 2 2 2 3 2 3 3 3 4 3 4 4 3 4 5 4 4 4 5 4 4 4
4 6 7 5 3 4 6 7 6 4 3 3 3 3 3 4 4 4 4 3 2 2 2 2 2 1 1 2 2 2 2 1 2 3 3 4 4 4 4 3 3 4 4 4 4 4 5 4 4
5 6 6 4 2 3 5 8 5 3 4 4 3 3 4 4 5 4 4 3 3 2 2 2 1 1 1 1 2 2 2 1 1 2 2 3 3 4 4 3 3 3 3 4 4 4 3 3 3
4 6 6 6 5 4 5 6 4 2 2 3 3 3 4 4 5 5 4 3 3 3 3 2 1 0 1 2 2 2 2 1 1 1 1 1 3 4 4 4 3 3 4 4 4 4 4 4 4
5 5 6 6 5 4 3 5 3 2 2 3 4 3 4 4 4 4 4 3 4 4 3 2 1 1 1 2 3 3 2 2 0 1 1 0 2 3 3 3 3 3 3 4 4 4 3 4 4
4 5 5 6 6 5 5 5 4 1 3 4 3 3 3 3 3 4 4 4 4 4 4 2 1 1 1 1 2 3 2 1 1 1 1 1 1 2 2 2 2 2 2 3 4 3 3 3 4
4 3 3 4 4 5 5 6 4 2 3 4 3 3 3 3 4 4 4 4 4 4 4 3 1 1 1 2 1 2 2 2 2 1 1 0 0 1 1 1 1 2 2 3 4 3 4 3 4
3 2 2 2 3 4 2 5 4 2 2 3 2 2 3 3 4 4 4 4 4 4 4 4 3 1 1 1 1 1 1 2 2 1 1 0 0 1 1 1 2 2 2 2 3 3 4 4 4
2 2 2 3 4 4 2 5 3 2 1 2 2 2 3 4 4 4 4 4 4 5 5 4 3 3 2 1 1 0 0 1 1 1 1 1 2 1 2 2 2 2 2 2 3 3 3 3 4
1 1 2 3 3 5 4 4 4 3 3 3 3 3 3 4 4 4 5 4 4 4 4 3 3 3 2 1 1 1 0 0 1 1 1 2 2 1 2 2 2 2 2 2 3 3 3 3 4
2 1 2 2 3 5 5 4 3 4 5 4 4 5 5 5 5 5 4 4 4 3 3 2 2 2 2 2 1 1 1 1 1 2 2 2 2 2 2 2 2 2 2 2 3 3 3 3 3
1 0 2 2 3 4 5 4 2 3 4 4 4 5 6 6 5 5 4 4 4 3 2 3 2 2 2 2 2 2 2 1 1 2 2 2 2 2 2 3 3 3 3 3 3 4 4 4 4
1 2 3 3 3 3 4 4 3 3 4 4 5 6 6 5 5 5 5 4 4 4 3 3 3 3 3 3 3 3 2 1 2 2 2 2 3 3 3 3 3 3 3 3 4 4 5 5 5
Wind_Direction
327 317 272 220 208 221 231 222 214 196 193 196 188 205 200 200 232 84 35 26 8 136 158 159 151 145 145 146 144 140 136 132 131 130 129 127 126 124 121 119 118 115 111 110 108 106 103 101 99
321 297 218 208 223 226 228 220 216 213 190 157 170 191 181 144 31 36 17 349 347 129 157 156 147 146 145 148 146 142 139 135 134 133 130 129 126 124 123 120 119 116 113 112 110 109 106 104 102
292 274 208 199 223 232 226 205 210 194 166 178 177 196 230 74 44 14 355 338 359 121 149 146 146 143 144 147 148 144 140 138 137 134 132 129 126 124 122 121 118 116 115 114 113 112 110 109 106
228 174 195 220 225 231 235 207 195 175 174 186 183 148 116 52 18 1 359 19 60 88 120 136 137 142 143 145 148 145 143 142 140 137 133 130 128 125 122 119 117 116 117 116 116 115 112 111 108
212 194 201 221 230 228 229 236 202 195 178 169 192 192 146 70 20 17 22 35 61 61 86 127 130 132 136 140 143 146 145 144 142 138 136 133 128 125 123 120 118 117 117 118 118 115 114 113 110
181 199 214 224 225 223 220 224 209 208 194 174 202 214 159 56 18 15 23 30 42 54 71 102 125 132 131 134 136 139 145 144 142 140 138 134 129 126 124 123 120 119 119 117 118 117 115 113 112
211 204 223 226 227 224 219 217 211 213 212 216 260 215 180 27 6 4 26 45 49 52 62 83 99 122 131 132 134 135 140 144 143 141 138 133 129 126 126 124 123 122 119 119 117 116 116 114 111
281 204 221 225 226 227 209 204 225 242 225 230 266 241 241 325 348 11 47 59 54 51 59 69 89 93 116 134 128 132 137 138 140 136 133 130 128 129 128 126 124 121 120 119 118 115 114 114 112
242 218 225 223 222 218 182 212 219 298 168 190 297 327 337 22 67 71 61 54 45 35 42 48 73 86 90 117 127 126 129 133 135 131 128 134 138 136 134 129 126 123 121 121 119 117 115 114 113
223 220 228 236 233 216 192 224 233 209 213 247 307 352 10 92 130 113 78 59 38 19 21 35 38 82 95 97 128 137 131 133 139 140 140 143 143 139 133 129 127 126 123 122 119 119 121 125 124
198 221 215 266 305 177 208 229 298 224 241 267 281 305 347 91 145 136 115 91 51 4 13 24 23 91 99 90 104 125 132 129 126 135 139 140 139 139 138 137 133 131 129 126 124 127 128 128 125
166 227 225 285 4 237 220 215 277 297 284 325 313 298 206 191 206 211 187 193 315 10 0 2 23 37 106 102 94 107 121 124 116 118 133 137 136 139 146 145 146 141 137 135 135 131 127 125 129
194 214 47 53 61 77 108 223 249 290 317 327 343 330 222 232 266 311 318 282 260 293 339 343 18 31 115 116 103 93 110 120 124 122 124 130 141 140 140 144 147 144 141 141 139 136 131 129 129
150 143 70 11 48 37 93 276 258 287 306 320 337 311 292 267 280 314 330 324 303 296 309 320 357 13 117 113 109 100 101 122 123 124 119 125 132 138 138 136 139 139 145 146 145 140 136 133 130
165 178 273 331 316 243 273 256 249 284 276 288 309 302 311 315 320 313 300 297 305 306 310 310 299 1 114 118 109 96 96 113 113 116 119 115 124 139 140 138 136 135 135 136 138 137 135 128 126
204 231 242 276 320 288 235 249 297 339 261 281 306 320 330 330 325 316 306 302 315 321 316 320 319 331 142 125 118 106 100 109 105 114 117 114 119 135 141 141 137 135 138 138 139 141 141 139 135
202 250 257 271 322 289 234 257 319 348 302 309 317 320 330 336 331 323 318 318 317 323 325 330 324 310 182 140 126 115 107 105 107 111 108 113 120 129 137 142 136 136 138 144 146 150 149 146 139
252 253 254 266 283 272 241 258 289 320 298 298 311 321 324 331 328 322 322 323 323 335 339 335 320 299 171 137 125 107 96 93 101 103 105 111 117 126 126 134 138 139 140 145 153 151 148 150 146
246 241 259 275 275 273 251 267 281 301 308 301 297 308 315 315 322 332 335 334 341 358 345 330 319 303 155 143 150 153 142 128 112 96 109 117 119 123 127 127 146 149 157 158 159 153 151 153 152
237 244 261 286 297 270 273 276 279 284 275 288 295 306 319 326 332 339 340 346 348 350 340 338 323 226 179 160 166 174 183 152 114 89 100 127 129 136 140 139 148 159 159 157 158 155 161 164 170
263 250 264 278 291 250 277 271 253 276 283 313 310 310 323 328 331 336 333 336 347 338 335 333 331 279 188 159 138 130 127 117 103 93 97 129 142 144 143 148 149 162 168 170 171 173 175 178 185
279 287 268 262 261 262 267 278 272 275 302 315 316 321 322 327 331 330 330 339 342 332 319 316 322 39 47 141 147 147 152 152 212 186 182 122 139 142 149 151 156 162 174 176 181 185 191 183 193
288 301 264 249 246 261 253 257 274 280 284 292 305 304 305 314 326 331 334 340 342 343 329 310 11 46 50 99 155 155 155 149 120 131 114 117 125 132 139 150 160 172 180 183 188 193 196 196 202
307 273 229 218 230 249 250 245 270 243 269 287 295 311 324 329 332 335 337 344 348 348 351 345 25 61 72 69 116 148 163 154 134 136 108 78 139 139 140 143 168 197 193 192 196 200 205 206 210
343 292 268 242 234 253 222 240 268 293 273 262 274 311 321 321 324 336 340 346 346 348 360 7 14 15 51 72 72 129 166 165 166 184 188 220 243 253 219 223 207 213 213 205 203 204 212 210 210
293 284 271 269 269 287 244 249 283 338 316 330 315 311 323 322 322 328 329 337 342 349 360 2 7 9 3 43 50 109 138 179 198 208 211 228 235 237 249 243 223 216 215 215 207 204 211 214 215
285 242 297 270 270 271 265 279 288 337 343 344 331 323 323 319 323 325 328 331 335 341 348 352 352 354 347 330 345 334 233 223 233 225 226 236 244 250 247 245 231 218 216 220 210 208 213 216 221
334 234 219 236 269 271 281 273 288 311 313 323 327 323 324 324 321 321 322 325 327 332 340 344 331 329 334 321 304 283 256 233 260 232 233 243 252 257 236 232 227 216 223 225 217 212 214 212 221
3 210 254 239 268 269 281 284 352 305 306 300 308 315 318 315 311 309 314 318 323 328 333 329 316 323 328 323 307 301 284 263 269 246 242 251 254 248 232 227 229 221 222 228 225 216 215 219 222
250 265 241 251 257 247 271 286 36 335 329 319 314 318 317 309 306 307 314 322 328 329 328 326 328 327 319 313 308 304 302 297 285 285 276 268 254 248 240 228 227 225 226 231 233 226 220 220 222
Height
1519 1520 1522 1525 1524 1519 1513 1512 1515 1517 1519 1522 1523 1522 1520 1521 1523 1529 1530 1526 1527 1528 1530 1532 1533 1535 1537 1539 1540 1542 1543 1544 1545 1546 1547 1548 1549 1549 1550 1550 1551 1552 1552 1552 1553 1553 1554 1554 1555
1519 1520 1524 1524 1518 1514 1511 1512 1517 1519 1522 1524 1524 1524 1523 1524 1527 1528 1526 1526 1527 1528 1530 1532 1534 1536 1537 1539 1540 1542 1543 1545 1546 1547 1548 1548 1549 1550 1551 1551 1552 1553 1553 1554 1554 1555 1555 1556 1556
1519 1520 1523 1520 1515 1508 1508 1514 1518 1522 1523 1524 1524 1524 1525 1527 1527 1527 1526 1526 1527 1529 1531 1532 1534 1536 1537 1539 1541 1542 1543 1545 1546 1547 1548 1549 1550 1551 1551 1552 1553 1554 1554 1555 1555 1556 1557 1557 1558
1519 1522 1522 1518 1512 1510 1513 1517 1520 1522 1523 1524 1525 1525 1527 1528 1527 1526 1526 1526 1527 1529 1531 1532 1534 1535 1537 1539 1541 1542 1543 1545 1546 1547 1548 1549 1550 1551 1552 1553 1554 1555 1555 1556 1556 1557 1558 1559 1559
1519 1520 1518 1515 1511 1512 1518 1521 1522 1520 1522 1524 1525 1525 1527 1527 1526 1525 1525 1526 1527 1529 1530 1532 1534 1535 1537 1539 1540 1542 1543 1545 1546 1547 1549 1550 1551 1551 1552 1553 1554 1555 1556 1557 1557 1558 1559 1560 1560
1519 1517 1513 1509 1509 1514 1519 1522 1522 1521 1523 1525 1526 1525 1527 1527 1525 1525 1525 1526 1527 1528 1530 1532 1533 1535 1537 1538 1540 1541 1543 1544 1546 1547 1548 1550 1551 1552 1553 1554 1555 1556 1557 1558 1558 1559 1560 1561 1561
1518 1514 1509 1508 1510 1513 1519 1522 1522 1522 1522 1525 1526 1525 1526 1526 1525 1525 1525 1526 1527 1528 1529 1531 1533 1535 1537 1538 1539 1541 1542 1544 1545 1547 1548 1549 1551 1552 1553 1554 1555 1556 1557 1558 1559 1560 1561 1561 1562
1517 1516 1512 1511 1512 1513 1520 1522 1523 1523 1523 1526 1526 1526 1526 1526 1525 1525 1525 1526 1527 1528 1529 1530 1532 1534 1536 1538 1539 1540 1542 1543 1545 1546 1548 1549 1550 1552 1553 1554 1555 1556 1557 1558 1559 1560 1561 1562 1563
1517 1517 1511 1511 1513 1516 1521 1522 1524 1524 1525 1525 1526 1527 1527 1525 1524 1525 1525 1525 1526 1527 1528 1530 1531 1533 1535 1537 1538 1540 1541 1543 1544 1546 1547 1548 1550 1551 1553 1554 1555 1556 1558 1559 1560 1561 1562 1562 1563
1518 1514 1514 1517 1518 1519 1522 1522 1524 1524 1524 1525 1526 1525 1525 1525 1524 1524 1523 1523 1524 1525 1526 1528 1530 1531 1533 1535 1537 1538 1540 1542 1543 1545 1546 1548 1549 1550 1552 1553 1555 1556 1557 1559 1560 1561 1562 1563 1563
1518 1517 1519 1521 1521 1522 1523 1524 1525 1524 1523 1525 1525 1524 1523 1523 1523 1523 1523 1523 1524 1525 1525 1527 1528 1530 1532 1533 1535 1537 1538 1540 1542 1543 1545 1546 1548 1549 1551 1552 1554 1556 1557 1558 1559 1560 1562 1563 1564
1520 1521 1522 1523 1523 1523 1523 1524 1525 1525 1526 1526 1525 1524 1523 1523 1522 1522 1522 1523 1523 1524 1524 1525 1527 1529 1530 1532 1533 1535 1537 1538 1540 1541 1543 1545 1546 1548 1550 1551 1553 1554 1556 1557 1558 1560 1561 1562 1563
1521 1522 1523 1524 1524 1524 1524 1525 1525 1525 1526 1525 1524 1523 1522 1522 1522 1522 1522 1522 1523 1523 1523 1524 1525 1526 1528 1530 1532 1533 1535 1536 1538 1540 1542 1543 1545 1546 1548 1550 1552 1553 1555 1556 1558 1559 1560 1562 1563
1523 1523 1524 1524 1523 1524 1523 1524 1525 1524 1525 1524 1523 1522 1521 1521 1520 1520 1520 1521 1521 1522 1522 1523 1523 1524 1526 1528 1530 1531 1533 1535 1537 1538 1540 1542 1544 1545 1547 1548 1550 1552 1553 1555 1557 1558 1559 1561 1562
1524 1523 1523 1523 1523 1524 1523 1522 1524 1524 1524 1523 1522 1521 1520 1519 1519 1519 1519 1520 1520 1520 1521 1521 1522 1523 1524 1526 1528 1530 1531 1533 1535 1536 1538 1540 1542 1543 1545 1547 1548 1550 1552 1553 1555 1557 1558 1559 1560
1522 1520 1518 1522 1523 1523 1524 1517 1523 1523 1523 1522 1521 1520 1519 1518 1518 1518 1518 1518 1518 1519 1519 1519 1520 1520 1523 1524 1526 1528 1530 1532 1533 1535 1536 1538 1540 1542 1543 1545 1547 1548 1550 1552 1554 1555 1556 1558 1559
1519 1518 1517 1520 1523 1523 1522 1518 1523 1523 1522 1521 1520 1519 1518 1517 1516 1516 1516 1516 1516 1517 1517 1517 1518 1519 1520 1522 1524 1526 1528 1530 1531 1533 1534 1536 1537 1540 1542 1543 1545 1546 1548 1550 1552 1553 1555 1556 1557
1519 1518 1518 1519 1522 1522 1520 1519 1521 1522 1521 1520 1519 1518 1517 1515 1514 1514 1514 1515 1515 1515 1516 1516 1515 1517 1518 1519 1521 1524 1526 1528 1530 1531 1533 1534 1536 1537 1539 1542 1543 1544 1546 1548 1550 1552 1553 1554 1555
1522 1521 1519 1519 1522 1522 1518 1517 1519 1520 1520 1519 1518 1516 1515 1514 1513 1513 1512 1512 1512 1512 1514 1514 1514 1514 1515 1516 1518 1520 1523 1525 1527 1529 1531 1532 1534 1535 1537 1539 1541 1542 1544 1546 1548 1549 1551 1552 1553
1523 1521 1519 1521 1523 1522 1518 1516 1517 1518 1518 1518 1517 1515 1514 1512 1511 1511 1510 1510 1510 1510 1510 1510 1511 1513 1513 1514 1516 1519 1521 1523 1525 1527 1529 1531 1532 1533 1535 1537 1538 1540 1542 1543 1545 1547 1548 1549 1551
1522 1521 1520 1521 1522 1521 1519 1511 1513 1515 1516 1516 1515 1514 1513 1511 1509 1508 1508 1508 1508 1508 1508 1508 1509 1510 1511 1513 1515 1517 1519 1521 1523 1524 1526 1528 1529 1531 1533 1534 1536 1538 1539 1541 1542 1544 1546 1547 1548
1520 1523 1523 1522 1519 1514 1518 1507 1506 1511 1512 1513 1513 1512 1511 1510 1509 1508 1507 1506 1506 1506 1506 1507 1507 1507 1509 1511 1512 1514 1515 1517 1519 1521 1523 1525 1527 1528 1530 1532 1534 1535 1537 1538 1539 1541 1543 1544 1545
1524 1525 1523 1521 1519 1516 1516 1512 1502 1509 1510 1511 1512 1512 1511 1510 1509 1508 1506 1506 1506 1505 1505 1505 1505 1506 1507 1509 1510 1511 1513 1515 1517 1519 1521 1522 1524 1526 1527 1530 1531 1533 1534 1536 1537 1539 1540 1541 1542
1528 1525 1522 1519 1516 1513 1514 1511 1498 1505 1509 1509 1510 1510 1509 1509 1508 1507 1506 1505 1505 1505 1504 1503 1504 1505 1505 1507 1508 1509 1510 1512 1514 1516 1518 1520 1521 1523 1524 1526 1528 1530 1531 1533 1534 1536 1537 1538 1540
1528 1521 1512 1508 1507 1504 1514 1511 1505 1508 1510 1510 1510 1510 1509 1509 1508 1506 1505 1504 1504 1503 1503 1502 1502 1503 1503 1505 1506 1507 1508 1510 1512 1513 1515 1517 1519 1520 1522 1524 1525 1527 1528 1530 1531 1533 1534 1535 1536
1529 1526 1520 1512 1504 1500 1511 1506 1507 1511 1511 1511 1510 1510 1509 1508 1507 1506 1505 1504 1503 1502 1501 1501 1501 1501 1502 1503 1504 1505 1506 1507 1509 1511 1512 1514 1515 1517 1519 1521 1522 1524 1525 1527 1528 1529 1530 1532 1533
1530 1529 1532 1526 1522 1516 1505 1508 1509 1511 1510 1511 1511 1510 1509 1508 1507 1505 1504 1503 1502 1501 1500 1499 1500 1500 1501 1501 1502 1503 1504 1505 1506 1508 1509 1510 1512 1514 1515 1517 1519 1520 1522 1523 1524 1525 1527 1528 1529
1536 1534 1532 1526 1516 1504 1500 1503 1504 1510 1511 1511 1510 1509 1508 1507 1505 1504 1503 1502 1501 1500 1499 1499 1499 1499 1499 1500 1500 1501 1502 1503 1504 1505 1506 1508 1509 1510 1512 1513 1515 1516 1518 1519 1520 1521 1523 1524 1525
1538 1537 1533 1527 1524 1511 1501 1501 1510 1511 1512 1511 1510 1509 1508 1506 1505 1503 1502 1501 1500 1499 1498 1498 1498 1497 1497 1498 1498 1499 1500 1501 1502 1503 1503 1505 1506 1507 1508 1510 1511 1512 1514 1515 1516 1517 1519 1520 1521
1539 1538 1535 1527 1525 1523 1511 1510 1514 1514 1513 1511 1510 1509 1507 1506 1504 1502 1500 1499 1498 1497 1497 1496 1495 1495 1495 1496 1497 1497 1497 1498 1499 1499 1500 1501 1502 1504 1505 1505 1507 1508 1509 1511 1512 1513 1514 1515 1516